Location: Bernadets
(43.3537°N, 0.3167°E)
Time: 06:07:06
(UTC+00:00)

Okean-O - Pass Details

Date: 07 June 2022
Orbit: 638 x 640 km, 98.1° (Epoch: 01 July)

Event Time Altitude Azimuth Distance (km) Brightness Sun altitude
Rises 20:07:44 0° 186° (S) 2,929 5.7 -5.4°
Reaches altitude 10° 20:10:04 10° 195° (SSW) 2,024 5.0 -5.7°
Maximum altitude 20:14:09 37° 262° (W) 1,005 4.1 -6.3°
Drops below altitude 10° 20:18:16 10° 330° (NNW) 2,038 6.6 -6.9°
Sets 20:20:38 0° 339° (NNW) 2,952 7.3 -7.2°
